1536127201.17,38086,18.19,73998.5,7.47,4.71,4.63,0,*7F
1536127202.39,38087,18.25,74000.8,7.47,5.51,5.41,0,*7C
1536127203.61,38088,18.25,73998.0,7.41,5.85,5.81,0,*70
1536127204.81,38089,18.25,73998.5,7.41,5.95,5.93,0,*73
1536127206.03,38090,18.19,73996.8,7.39,5.55,5.49,0,*7F
1536127207.24,38091,18.25,74000.0,7.39,5.19,5.07,0,*7C
1536127208.44,38092,18.25,73998.8,7.37,5.55,5.41,0,*7B
1536127209.64,38093,18.19,73996.3,7.37,5.51,5.41,0,*7E
1536127210.85,38094,18.19,73996.5,7.35,5.33,5.19,0,*72
1536127212.03,38095,18.19,73996.3,7.33,5.11,4.89,0,*7D
1536127213.21,38096,18.19,73998.8,7.29,5.71,5.59,0,*7F
1536127214.41,38097,18.19,73998.8,7.31,5.59,5.49,0,*7C
1536127215.62,38098,18.25,74000.3,7.29,5.11,5.01,0,*7A
1536127216.83,38099,18.25,74002.8,7.29,5.11,4.97,0,*75
1536127218.0,38100,18.25,74004.0,7.25,5.29,5.29,0,*77
1536127219.22,38101,18.19,74002.0,7.25,5.81,5.77,0,*7F
1536127220.45,38102,18.25,74002.5,7.25,5.93,5.89,0,*7E
1536127221.68,38103,18.25,74000.8,7.25,5.93,5.89,0,*7F
1536127222.88,38104,18.25,74000.5,7.25,5.77,5.63,0,*76
1536127224.07,38105,18.25,74002.3,7.25,5.51,5.41,0,*73
1536127225.27,38106,18.19,73998.8,7.19,5.37,5.33,0,*7A
1536127226.45,38107,18.25,74002.8,7.21,5.49,5.41,0,*7C
1536127227.64,38108,18.25,74000.5,7.19,5.59,5.49,0,*71
1536127228.87,38109,18.19,73996.8,7.19,5.81,5.71,0,*7E
1536127230.12,38110,18.25,74002.8,7.19,5.93,5.81,0,*7A
1536127231.3,38111,18.25,74000.0,7.17,5.37,5.37,0,*76
1536127232.51,38112,18.19,73998.8,7.15,5.19,5.07,0,*78
1536127233.75,38113,18.25,74002.0,7.15,5.67,5.55,0,*77
1536127234.95,38114,18.19,73998.0,7.15,5.67,5.63,0,*75
1536127236.17,38115,18.25,73998.3,7.13,5.81,5.77,0,*7F
1536127237.41,38116,18.25,74002.8,7.15,5.99,5.89,0,*72
1536127238.61,38117,18.25,74000.8,7.15,5.29,5.19,0,*71
1536127239.84,38118,18.25,74002.0,7.13,4.75,4.59,0,*75
1536127241.04,38119,18.19,74002.3,7.09,4.11,4.05,0,*74
1536127242.25,38120,18.19,73998.8,7.09,4.59,4.53,0,*71
1536127243.48,38121,18.19,73996.3,7.07,5.01,4.85,0,*79
1536127244.7,38122,18.25,74000.5,7.07,5.27,5.15,0,*76
1536127245.93,38123,18.19,73998.3,7.07,5.01,4.89,0,*77
1536127247.13,38124,18.25,74000.8,7.03,5.33,5.29,0,*7E
1536127248.34,38125,18.25,74000.5,7.03,5.07,5.07,0,*74
1536127249.55,38126,18.25,74002.0,7.03,5.19,5.07,0,*78
1536127250.78,38127,18.19,73996.5,7.03,4.81,4.71,0,*79
1536127252.04,38128,18.25,74000.5,7.03,4.75,4.71,0,*7D
1536127253.27,38129,18.19,73998.8,6.99,4.79,4.57,0,*76
1536127254.47,38130,18.25,74002.3,6.97,4.81,4.63,0,*70
1536127255.67,38131,18.19,73998.0,6.95,4.57,4.45,0,*7C
1536127256.88,38132,18.19,73998.0,6.93,4.33,4.31,0,*78
1536127258.1,38133,18.19,73996.5,6.93,4.79,4.59,0,*79
1536127259.28,38134,18.25,74000.0,6.93,4.89,4.85,0,*70
1536127260.49,38135,18.19,74000.8,6.89,5.07,4.97,0,*7E
1536127261.66,38136,18.19,73998.3,6.93,5.41,5.33,0,*7B
1536127262.87,38137,18.19,73998.3,6.91,5.59,5.59,0,*7D
1536127264.07,38138,18.25,74002.0,6.89,5.51,5.41,0,*7A
1536127265.27,38139,18.19,73996.5,6.91,5.45,5.29,0,*79
1536127266.48,38140,18.19,73998.0,6.91,5.71,5.59,0,*77
1536127267.68,38141,18.19,74002.5,6.89,5.95,5.85,0,*74
1536127268.89,38142,18.19,74002.3,6.91,6.11,6.11,0,*7F
1536127270.13,38143,18.19,74000.8,6.91,6.13,6.11,0,*7C
1536127271.37,38144,18.19,74002.0,6.91,5.77,5.77,0,*79
1536127272.57,38145,18.19,74000.3,6.91,5.49,5.45,0,*74
1536127273.75,38146,18.19,73998.3,6.93,5.71,5.71,0,*79
1536127274.95,38147,18.19,74000.8,6.95,5.63,5.63,0,*7E
1536127276.12,38148,18.19,74002.3,6.93,5.49,5.45,0,*7B
1536127277.37,38149,18.19,74002.0,6.91,5.81,5.77,0,*7D
1536127278.61,38150,18.19,74000.3,6.91,5.99,5.89,0,*7D
1536127279.86,38151,18.19,73998.8,6.91,5.89,5.77,0,*7C
1536127281.1,38152,18.25,74000.3,6.91,5.99,5.89,0,*7F
1536127282.3,38153,18.25,74004.3,6.91,5.71,5.59,0,*75
1536127283.52,38154,18.19,74000.0,6.91,5.99,5.99,0,*78
1536127284.73,38155,18.25,74004.0,6.91,5.71,5.59,0,*73
1536127285.95,38156,18.19,74002.3,6.91,5.71,5.77,0,*7C
1536127287.21,38157,18.25,74000.3,6.91,5.89,5.77,0,*7A
1536127288.45,38158,18.19,74002.3,6.91,6.03,5.93,0,*7E
1536127289.63,38159,18.25,74000.8,6.93,5.99,5.99,0,*77
1536127290.83,38160,18.25,74000.0,6.93,6.21,6.13,0,*7C
1536127292.08,38161,18.19,74002.3,6.95,6.17,6.13,0,*7E
1536127293.26,38162,18.25,74000.3,6.93,6.11,6.03,0,*7C
1536127294.45,38163,18.19,74000.8,6.93,6.29,6.25,0,*72
1536127295.65,38164,18.19,74000.8,6.93,6.13,6.03,0,*78
1536127296.86,38165,18.19,73996.8,6.95,6.33,6.29,0,*75
1536127298.04,38166,18.19,73998.8,6.93,6.21,6.21,0,*7B
1536127299.22,38167,18.25,74002.0,6.93,6.11,5.99,0,*79
1536127300.47,38168,18.19,73996.8,6.95,5.81,5.73,0,*7E
1536127301.69,38169,18.25,74002.5,6.95,5.51,5.37,0,*72
1536127302.88,38170,18.25,74002.3,6.95,5.45,5.37,0,*7F
1536127304.08,38171,18.25,74000.0,6.93,5.49,5.55,0,*70
1536127305.24,38172,18.25,73998.5,6.93,5.45,5.41,0,*7A
1536127306.44,38173,18.25,74000.3,6.95,5.45,5.33,0,*78
1536127307.65,38174,18.19,73998.3,6.93,5.11,5.01,0,*79
1536127308.85,38175,18.19,73994.8,6.91,4.85,4.85,0,*7B
1536127310.06,38176,18.25,74000.5,6.89,4.85,4.75,0,*7E
1536127311.27,38177,18.25,74000.0,6.89,4.81,4.75,0,*7B
1536127312.45,38178,18.19,73996.0,6.89,4.33,4.23,0,*7E
1536127313.68,38179,18.19,73996.3,6.85,5.05,5.05,0,*72
1536127314.91,38180,18.25,74002.3,6.87,5.33,5.27,0,*73
1536127316.13,38181,18.19,73996.8,6.85,5.51,5.51,0,*75
1536127317.33,38182,18.19,73998.0,6.85,5.51,5.41,0,*77
1536127318.56,38183,18.19,73998.8,6.87,5.73,5.63,0,*74
1536127319.76,38184,18.19,73996.8,6.85,5.27,5.11,0,*75
1536127320.99,38185,18.19,73996.8,6.85,5.01,5.01,0,*71
1536127322.2,38186,18.25,74000.3,6.87,5.33,5.33,0,*70
1536127323.42,38187,18.19,74000.5,6.85,5.81,5.73,0,*7E
1536127324.6,38188,18.25,74002.8,6.83,5.59,5.59,0,*7A
1536127325.78,38189,18.19,73996.8,6.85,5.71,5.59,0,*77
1536127326.96,38190,18.19,73998.0,6.85,5.63,5.59,0,*7C
1536127328.16,38191,18.19,73992.5,6.85,5.51,5.41,0,*75
1536127329.35,38192,18.19,73996.5,6.85,5.55,5.49,0,*7A
1536127330.58,38193,18.25,74000.0,6.85,5.93,5.81,0,*75
1536127331.81,38194,18.25,73998.8,6.83,5.93,5.81,0,*74
1536127332.99,38195,18.25,74000.8,6.83,5.37,5.29,0,*79
1536127334.16,38196,18.19,73998.5,6.83,5.45,5.45,0,*75
1536127335.34,38197,18.25,74002.8,6.83,5.29,5.23,0,*7E
1536127336.51,38198,18.19,74000.0,6.85,5.49,5.49,0,*7D
1536127337.68,38199,18.19,74000.0,6.83,5.49,5.45,0,*76
1536127338.87,38200,18.19,74000.8,6.81,5.45,5.45,0,*7B
1536127340.06,38201,18.19,73998.3,6.81,5.49,5.49,0,*7A
1536127341.29,38202,18.25,74000.0,6.83,6.17,6.17,0,*7B
1536127342.47,38203,18.19,73996.0,6.85,6.07,6.03,0,*78
1536127343.7,38204,18.25,74000.5,6.85,5.85,5.81,0,*7F
1536127344.87,38205,18.19,73998.0,6.85,5.71,5.71,0,*7A
1536127346.07,38206,18.19,73996.8,6.85,5.73,5.71,0,*7B
1536127347.3,38207,18.19,73996.3,6.85,5.93,5.93,0,*78
1536127348.49,38208,18.19,73996.0,6.83,5.67,5.59,0,*7C
1536127349.68,38209,18.19,74000.0,6.83,5.23,5.23,0,*70
1536127350.88,38210,18.19,73998.5,6.83,4.97,4.85,0,*7B
1536127352.09,38211,18.19,73994.8,6.81,5.33,5.23,0,*7A
1536127353.3,38212,18.19,73998.5,6.83,5.11,5.01,0,*7B
1536127354.54,38213,18.19,73996.3,6.81,5.55,5.55,0,*79
1536127355.74,38214,18.25,74002.3,6.81,5.71,5.59,0,*74
1536127356.99,38215,18.19,73996.8,6.81,5.81,5.77,0,*76
1536127358.21,38216,18.25,74002.5,6.83,5.81,5.89,0,*76
1536127359.44,38217,18.19,74000.8,6.81,5.67,5.55,0,*7C
1536127360.62,38218,18.19,73996.5,6.83,5.71,5.67,0,*77
1536127361.82,38219,18.19,73998.3,6.83,5.77,5.67,0,*70
1536127362.99,38220,18.25,74000.0,6.83,5.49,5.45,0,*77
1536127364.22,38221,18.19,74000.3,6.81,5.67,5.55,0,*79
1536127365.4,38222,18.25,74002.0,6.83,5.71,5.67,0,*7E
1536127366.6,38223,18.19,74002.3,6.81,5.59,5.59,0,*7A
1536127367.8,38224,18.19,73996.8,6.81,6.29,6.25,0,*71
1536127369.05,38225,18.25,74004.0,6.81,6.61,6.57,0,*79
1536127370.26,38226,18.19,73998.3,6.83,6.25,6.17,0,*7C
1536127371.49,38227,18.25,74000.8,6.83,6.47,6.35,0,*79
1536127372.72,38228,18.19,73996.3,6.83,5.89,5.81,0,*7B
1536127373.89,38229,18.19,73998.0,6.85,6.07,6.07,0,*74
1536127375.12,38230,18.25,74000.5,6.87,5.73,5.63,0,*7F
1536127376.32,38231,18.19,74000.3,6.85,5.27,5.23,0,*79
1536127377.49,38232,18.25,74000.3,6.83,5.45,5.45,0,*78
1536127378.67,38233,18.25,74000.8,6.85,5.59,5.59,0,*7F
1536127379.89,38234,18.25,74002.0,6.85,5.73,5.73,0,*78
1536127381.08,38235,18.19,74000.8,6.83,6.11,6.03,0,*7C
1536127382.3,38236,18.19,73998.0,6.85,5.85,5.81,0,*7E
1536127383.49,38237,18.19,73998.5,6.85,5.63,5.59,0,*72
1536127384.69,38238,18.19,73998.5,6.85,6.21,6.17,0,*71
1536127385.86,38239,18.19,74002.5,6.85,6.07,6.07,0,*75
1536127387.09,38240,18.19,74000.3,6.85,6.13,6.17,0,*7F
1536127388.28,38241,18.19,74002.5,6.85,6.21,6.21,0,*7A
1536127389.46,38242,18.19,73998.8,6.85,6.33,6.33,0,*79
1536127390.65,38243,18.19,73998.3,6.85,6.21,6.21,0,*78
1536127391.86,38244,18.19,74002.5,6.85,6.13,6.03,0,*7E
1536127393.03,38245,18.19,74000.0,6.85,5.71,5.63,0,*7D
1536127394.2,38246,18.19,74000.5,6.85,5.41,5.37,0,*7C
1536127395.38,38247,18.25,74002.0,6.85,5.41,5.41,0,*7C
1536127396.6,38248,18.19,74002.5,6.85,5.81,5.73,0,*7E
1536127397.78,38249,18.25,74002.3,6.85,5.59,5.59,0,*72
1536127399.01,38250,18.25,74002.0,6.83,5.89,5.93,0,*77
1536127400.24,38251,18.19,74000.3,6.87,5.73,5.63,0,*78
1536127401.44,38252,18.19,74000.0,6.83,5.77,5.71,0,*78
1536127402.64,38253,18.19,74002.5,6.83,6.13,6.11,0,*7D
1536127403.85,38254,18.19,74000.5,6.85,6.13,6.03,0,*7F
1536127405.03,38255,18.19,73998.0,6.85,6.07,6.03,0,*7B
1536127406.22,38256,18.19,73996.0,6.85,6.03,6.03,0,*7C
1536127407.44,38257,18.25,74000.5,6.85,6.53,6.53,0,*7D
1536127408.67,38258,18.19,73998.5,6.85,6.73,6.65,0,*75
1536127409.86,38259,18.19,73998.5,6.85,6.75,6.65,0,*72
1536127411.09,38260,18.19,73996.5,6.85,6.73,6.65,0,*7E
1536127412.29,38261,18.25,73998.8,6.87,6.75,6.75,0,*7A
1536127413.54,38262,18.19,73996.0,6.87,6.65,6.53,0,*7C
1536127414.76,38263,18.19,73992.5,6.89,6.69,6.53,0,*7F
1536127415.99,38264,18.25,74000.3,6.89,6.69,6.69,0,*71
1536127417.16,38265,18.19,73998.5,6.89,6.79,6.79,0,*70
1536127418.41,38266,18.19,74002.0,6.91,6.73,6.57,0,*7C
1536127419.67,38267,18.19,73998.0,6.91,6.73,6.73,0,*7B
1536127420.91,38268,18.19,74000.0,6.91,6.35,6.25,0,*75
1536127422.14,38269,18.19,74002.5,6.91,5.99,5.89,0,*74
1536127423.35,38270,18.19,73996.3,6.91,6.21,6.21,0,*7D
1536127424.53,38271,18.19,73998.8,6.93,6.29,6.29,0,*7E
1536127425.71,38272,18.19,74002.5,6.93,6.29,6.25,0,*71
1536127426.93,38273,18.19,74002.3,6.91,6.29,6.29,0,*7E
1536127428.12,38274,18.19,73996.8,6.89,6.33,6.33,0,*70
1536127429.38,38275,18.25,74004.0,6.91,5.93,5.93,0,*78
1536127430.61,38276,18.19,74002.5,6.93,5.93,5.89,0,*72
1536127431.82,38277,18.19,73998.8,6.91,5.67,5.67,0,*7A
1536127433.03,38278,18.25,74004.0,6.89,5.73,5.67,0,*79
1536127434.25,38279,18.19,73998.3,6.89,5.81,5.89,0,*75
1536127435.44,38280,18.19,74002.5,6.89,6.11,6.11,0,*7B
1536127436.64,38281,18.19,74002.0,6.89,5.95,5.89,0,*77
1536127437.85,38282,18.19,73998.0,6.89,5.95,5.89,0,*74
1536127439.03,38283,18.19,74000.3,6.89,5.99,5.95,0,*74
1536127440.21,38284,18.19,74002.8,6.89,6.07,5.95,0,*77
1536127441.42,38285,18.19,74002.3,6.91,6.29,6.21,0,*7F
1536127442.61,38286,18.19,74002.0,6.89,6.21,6.21,0,*7D
1536127443.85,38287,18.19,74000.5,6.91,6.35,6.21,0,*70
1536127445.06,38288,18.19,74002.0,6.89,5.95,5.89,0,*7E
1536127446.24,38289,18.19,74002.5,6.89,6.25,6.21,0,*76
1536127447.48,38290,18.19,74002.3,6.89,6.35,6.35,0,*7A
1536127448.72,38291,18.19,74002.3,6.89,6.35,6.35,0,*7B
1536127449.99,38292,18.19,74002.0,6.91,6.51,6.51,0,*71
1536127451.18,38293,18.19,74002.5,6.89,6.11,5.99,0,*7A
1536127452.4,38294,18.19,74002.0,6.89,5.55,5.55,0,*7E
1536127453.63,38295,18.19,74000.3,6.89,5.55,5.51,0,*7B
1536127454.88,38296,18.19,74000.0,6.87,5.85,5.81,0,*76
1536127456.08,38297,18.19,74002.3,6.85,5.95,5.85,0,*70
1536127457.31,38298,18.19,74002.5,6.85,5.85,5.85,0,*7E
1536127458.48,38299,18.19,74000.8,6.85,5.71,5.63,0,*7C
1536127459.65,38300,18.19,74000.0,6.85,5.49,5.37,0,*77
1536127460.86,38301,18.19,74000.3,6.85,6.03,5.93,0,*75
1536127462.09,38302,18.19,73996.3,6.85,5.81,5.73,0,*71
1536127463.26,38303,18.19,74002.5,6.85,5.71,5.71,0,*7D
1536127464.49,38304,18.19,74002.8,6.85,6.13,6.13,0,*7A
1536127465.72,38305,18.19,74000.0,6.85,5.93,5.93,0,*7B
1536127466.92,38306,18.19,74002.5,6.85,5.73,5.71,0,*7A
1536127468.1,38307,18.19,74000.0,6.83,5.23,5.19,0,*76
1536127469.29,38308,18.19,74002.0,6.83,5.19,5.19,0,*70
1536127470.49,38309,18.19,74002.8,6.81,5.59,5.59,0,*73
1536127471.73,38310,18.19,74002.0,6.81,5.77,5.77,0,*7B
1536127472.98,38311,18.19,74000.8,6.81,5.93,5.81,0,*79
1536127474.21,38312,18.19,73998.8,6.81,6.13,6.11,0,*7B
1536127475.44,38313,18.19,74002.5,6.81,6.25,6.17,0,*79
1536127476.65,38314,18.19,74000.8,6.81,6.29,6.25,0,*73
1536127477.85,38315,18.19,74002.0,6.81,6.25,6.29,0,*72
1536127479.1,38316,18.19,74000.5,6.81,6.57,6.51,0,*7B
1536127480.32,38317,18.19,74000.3,6.83,6.61,6.69,0,*76
1536127481.51,38318,18.25,74006.5,6.83,6.29,6.29,0,*71
1536127482.73,38319,18.19,74000.8,6.81,5.99,5.89,0,*73
1536127483.95,38320,18.19,74002.0,6.85,5.85,5.81,0,*78
1536127485.18,38321,18.19,74006.3,6.83,5.81,5.77,0,*72
1536127486.38,38322,18.19,74002.0,6.81,6.11,6.11,0,*7A
1536127487.64,38323,18.19,74006.0,6.81,6.51,6.47,0,*7C
1536127488.85,38324,18.19,74004.5,6.81,6.03,6.03,0,*7C
1536127490.04,38325,18.19,74002.0,6.83,5.67,5.59,0,*72
1536127491.24,38326,18.19,74000.0,6.81,5.71,5.67,0,*79
1536127492.44,38327,18.19,74000.5,6.81,6.11,6.11,0,*7F
1536127493.64,38328,18.19,74000.3,6.81,6.29,6.25,0,*7C
1536127494.89,38329,18.19,74002.0,6.81,6.39,6.39,0,*71
1536127496.14,38330,18.19,73998.5,6.81,6.61,6.51,0,*7A
1536127497.36,38331,18.19,73998.5,6.83,6.57,6.57,0,*7A
1536127498.57,38332,18.19,73996.0,6.83,6.25,6.13,0,*7C
1536127499.8,38333,18.19,73998.5,6.83,5.81,5.81,0,*78
1536127501.01,38334,18.19,73998.0,6.81,5.55,5.49,0,*70
1536127502.24,38335,18.19,73996.8,6.81,5.07,5.01,0,*7A
1536127503.45,38336,18.19,73996.5,6.81,5.33,5.23,0,*7E
1536127504.65,38337,18.19,73996.5,6.81,5.71,5.67,0,*79
1536127505.88,38338,18.19,73996.8,6.79,5.89,5.89,0,*76
1536127507.07,38339,18.19,73998.3,6.79,5.95,5.89,0,*7A
1536127508.25,38340,18.19,73998.5,6.79,5.95,5.95,0,*79
1536127509.43,38341,18.19,73996.8,6.75,6.07,6.03,0,*70
1536127510.61,38342,18.19,73998.3,6.79,6.25,6.25,0,*7B
1536127511.86,38343,18.19,73996.8,6.81,6.39,6.47,0,*74
1536127513.12,38344,18.19,74002.0,6.81,6.47,6.47,0,*7A
1536127514.37,38345,18.19,74000.8,6.81,6.17,6.17,0,*7B
1536127515.6,38346,18.19,74000.3,6.81,6.13,6.11,0,*7A
1536127516.82,38347,18.19,74004.0,6.83,6.39,6.39,0,*7B
1536127518.01,38348,18.19,74000.0,6.83,6.29,6.25,0,*78
1536127519.24,38349,18.19,74002.5,6.81,6.47,6.29,0,*7F
1536127520.47,38350,18.19,74000.8,6.83,6.47,6.39,0,*74
1536127521.7,38351,18.19,74002.0,6.83,6.51,6.51,0,*7C
1536127522.94,38352,18.19,74002.8,6.85,6.43,6.39,0,*74
1536127524.16,38353,18.19,74002.0,6.81,5.81,5.71,0,*73
1536127525.41,38354,18.19,74002.8,6.81,5.93,5.89,0,*70
1536127526.64,38355,18.19,74002.5,6.83,6.13,6.13,0,*78
1536127527.82,38356,18.19,73996.3,6.83,6.29,6.29,0,*7B
1536127529.05,38357,18.19,74002.0,6.83,6.39,6.47,0,*73
1536127530.31,38358,18.19,73998.3,6.81,6.47,6.35,0,*72
1536127531.49,38359,18.19,73998.0,6.83,6.11,6.03,0,*77
1536127532.74,38360,18.19,74002.8,6.81,6.39,6.39,0,*7C
1536127533.99,38361,18.19,73998.8,6.81,6.13,6.13,0,*7D
1536127535.24,38362,18.19,74004.0,6.81,5.89,5.89,0,*7E
1536127536.47,38363,18.19,74002.0,6.81,5.99,5.93,0,*75
1536127537.68,38364,18.19,74000.0,6.81,6.03,6.03,0,*78
1536127538.88,38365,18.19,74002.5,6.81,5.99,5.99,0,*79
1536127540.11,38366,18.19,74006.3,6.81,6.35,6.25,0,*7B
1536127541.32,38367,18.19,74000.3,6.81,6.29,6.25,0,*77
1536127542.57,38368,18.19,74002.5,6.81,6.39,6.51,0,*7A
1536127543.83,38369,18.19,74002.0,6.81,6.51,6.51,0,*75
1536127545.05,38370,18.19,74002.8,6.83,6.61,6.61,0,*7F
1536127546.24,38371,18.19,74000.8,6.83,6.25,6.25,0,*7E
1536127547.47,38372,18.19,74004.0,6.83,6.13,6.13,0,*7D
1536127548.71,38373,18.19,74002.0,6.81,6.17,6.17,0,*7E
1536127549.94,38374,18.19,74000.8,6.81,6.25,6.13,0,*7C
1536127551.14,38375,18.19,74004.5,6.81,5.49,5.49,0,*78
1536127552.34,38376,18.19,74002.5,6.81,5.59,5.59,0,*7B
1536127553.56,38377,18.19,74002.3,6.81,5.77,5.71,0,*7C
1536127554.81,38378,18.19,74002.5,6.81,6.13,6.17,0,*71
1536127555.99,38379,18.19,74004.0,6.79,6.21,6.21,0,*73
1536127557.19,38380,18.19,74002.3,6.81,6.11,6.11,0,*72
1536127558.43,38381,18.19,74000.3,6.81,6.13,6.13,0,*73
1536127559.69,38382,18.19,74002.8,6.81,6.35,6.39,0,*7C
1536127560.89,38383,18.19,74000.3,6.81,6.29,6.29,0,*71
1536127562.13,38384,18.19,73998.5,6.81,5.55,5.55,0,*76
1536127563.38,38385,18.19,73998.8,6.81,5.81,5.77,0,*7E
1536127564.58,38386,18.19,73998.0,6.81,6.25,6.29,0,*78
1536127565.81,38387,18.19,74002.3,6.81,6.35,6.29,0,*78
1536127567.06,38388,18.19,74000.3,6.81,6.17,6.13,0,*7E
1536127568.26,38389,18.19,74002.0,6.81,6.29,6.29,0,*7B
1536127569.48,38390,18.19,73998.8,6.79,6.57,6.47,0,*75
1536127570.66,38391,18.19,74000.8,6.79,6.07,5.99,0,*71
1536127571.9,38392,18.19,74002.3,6.81,5.77,5.77,0,*71
1536127573.09,38393,18.19,74000.8,6.81,5.29,5.29,0,*70
1536127574.26,38394,18.19,74002.0,6.79,5.33,5.33,0,*70
1536127575.45,38395,18.19,74000.8,6.75,5.23,5.23,0,*7D
1536127576.69,38396,18.19,74004.3,6.75,4.71,4.71,0,*7E
1536127577.92,38397,18.19,74004.5,6.71,4.79,4.75,0,*77
1536127579.11,38398,18.19,74004.8,6.71,5.11,5.07,0,*73
1536127580.29,38399,18.19,74002.3,6.71,5.11,5.19,0,*7D
1536127581.48,38400,18.19,74004.3,6.71,5.23,5.23,0,*72
1536127582.71,38401,18.19,74002.3,6.69,4.85,4.79,0,*79
1536127583.92,38402,18.19,74000.5,6.69,5.23,5.23,0,*79
1536127585.16,38403,18.19,74000.5,6.69,5.77,5.77,0,*78
1536127586.35,38404,18.19,74002.8,6.67,5.15,5.23,0,*74
1536127587.57,38405,18.19,73998.0,6.67,5.51,5.55,0,*74
1536127588.75,38406,18.19,74002.3,6.67,5.41,5.29,0,*7D
1536127589.99,38407,18.19,74006.0,6.67,4.71,4.63,0,*71
1536127591.22,38408,18.19,74000.0,6.65,4.93,4.81,0,*7C
1536127592.46,38409,18.19,74006.0,6.63,4.71,4.67,0,*7F
1536127593.64,38410,18.19,74004.3,6.63,5.15,5.15,0,*70
1536127594.87,38411,18.19,74002.8,6.63,5.05,5.01,0,*75
1536127596.08,38412,18.19,74004.0,6.61,4.41,4.41,0,*70
1536127597.34,38413,18.19,74000.0,6.61,4.67,4.67,0,*71
1536127598.6,38414,18.19,74002.3,6.57,4.59,4.59,0,*73
1536127599.85,38415,18.19,74000.0,6.57,4.59,4.59,0,*72
1536127601.09,38416,18.19,74002.3,6.57,4.59,4.53,0,*7B
1536127602.29,38417,18.19,74000.8,6.53,4.37,4.45,0,*71
1536127603.55,38418,18.19,74000.3,6.53,4.59,4.59,0,*7B
1536127604.78,38419,18.19,74006.0,6.49,4.79,4.75,0,*7D
1536127605.98,38420,18.19,74002.3,6.53,5.37,5.37,0,*70
1536127607.18,38421,18.19,74000.0,6.51,5.59,5.49,0,*72
1536127608.39,38422,18.19,74002.5,6.51,5.41,5.41,0,*70
1536127609.58,38423,18.19,74002.8,6.51,5.37,5.29,0,*7E
1536127610.79,38424,18.19,74006.3,6.49,4.89,4.97,0,*70
1536127612.03,38425,18.19,74002.0,6.51,4.81,4.71,0,*78
1536127613.22,38426,18.19,74000.3,6.49,5.23,5.23,0,*7D
1536127614.43,38427,18.19,74000.0,6.49,5.01,5.11,0,*7D
1536127615.61,38428,18.19,74002.3,6.49,5.11,5.11,0,*73
1536127616.83,38429,18.19,74000.5,6.49,5.77,5.77,0,*72
1536127618.02,38430,18.19,74000.3,6.49,5.23,5.23,0,*7A
1536127619.19,38431,18.19,74004.3,6.49,4.57,4.53,0,*7F
1536127620.43,38432,18.19,74004.0,6.49,5.01,4.97,0,*76
1536127621.66,38433,18.19,74002.5,6.45,4.97,4.97,0,*75
1536127622.92,38434,18.19,74004.0,6.47,5.01,5.01,0,*70
1536127624.1,38435,18.19,74004.8,6.45,4.41,4.37,0,*72
1536127625.28,38436,18.19,74000.8,6.45,4.53,4.49,0,*7B
1536127626.51,38437,18.19,74006.3,6.43,4.59,4.57,0,*79
1536127627.74,38438,18.19,74004.3,6.43,4.97,4.89,0,*77
1536127628.97,38439,18.19,74006.5,6.41,5.05,5.05,0,*7B
1536127630.17,38440,18.19,74004.3,6.43,5.71,5.71,0,*77
1536127631.38,38441,18.19,74004.5,6.43,6.07,5.99,0,*72
1536127632.57,38442,18.19,74004.0,6.45,6.03,5.99,0,*73
1536127633.75,38443,18.19,74004.3,6.45,6.25,6.33,0,*75
1536127634.93,38444,18.19,74004.3,6.45,6.33,6.25,0,*72
1536127636.16,38445,18.19,74004.0,6.45,5.93,5.93,0,*74
1536127637.38,38446,18.19,74006.5,6.47,6.03,5.99,0,*75
1536127638.58,38447,18.19,74002.5,6.47,6.21,6.21,0,*74
1536127639.82,38448,18.19,74004.8,6.47,5.77,5.73,0,*7F
1536127641.05,38449,18.19,74004.8,6.47,6.11,6.13,0,*78
1536127642.28,38450,18.19,74002.5,6.51,6.39,6.33,0,*7F
1536127643.49,38451,18.19,74000.8,6.51,6.11,6.07,0,*73
1536127644.74,38452,18.19,74000.8,6.53,5.85,5.85,0,*75
1536127645.94,38453,18.19,74000.8,6.51,6.11,6.11,0,*76
1536127647.15,38454,18.19,74000.0,6.51,6.25,6.29,0,*7D
1536127648.36,38455,18.19,74000.5,6.53,5.99,5.99,0,*72
1536127649.6,38456,18.19,74004.0,6.57,6.13,6.25,0,*70
1536127650.8,38457,18.19,74000.0,6.53,6.21,6.21,0,*70
1536127652.0,38458,18.19,74002.5,6.53,6.11,6.07,0,*78
1536127653.2,38459,18.19,74000.5,6.53,5.71,5.63,0,*7D
1536127654.41,38460,18.19,74000.5,6.53,5.71,5.63,0,*77
1536127655.65,38461,18.19,74000.0,6.53,5.51,5.51,0,*75
1536127656.86,38462,18.19,74000.8,6.53,5.07,5.07,0,*76
1536127658.06,38463,18.19,74004.0,6.53,5.49,5.49,0,*77
1536127659.26,38464,18.19,73998.0,6.53,5.41,5.41,0,*70
1536127660.45,38465,18.19,74002.3,6.53,5.29,5.29,0,*71
1536127661.7,38466,18.19,74002.3,6.51,5.81,5.81,0,*70
1536127662.92,38467,18.19,74002.0,6.51,6.29,6.33,0,*7A
1536127664.18,38468,18.19,73996.5,6.51,6.43,6.43,0,*7E
1536127665.43,38469,18.19,74002.0,6.51,6.53,6.53,0,*7F
1536127666.66,38470,18.19,73998.8,6.53,6.33,6.39,0,*7F
1536127667.92,38471,18.19,74002.5,6.57,6.53,6.47,0,*75
1536127669.17,38472,18.19,74004.0,6.57,6.57,6.61,0,*76
1536127670.4,38473,18.19,74000.0,6.59,6.73,6.65,0,*7B
1536127671.61,38474,18.19,74002.5,6.59,5.95,5.93,0,*7D
1536127672.85,38475,18.19,74000.5,6.59,5.89,5.93,0,*71
1536127674.02,38476,18.19,74002.3,6.59,6.07,6.07,0,*79
1536127675.21,38477,18.19,74002.3,6.59,6.07,6.03,0,*7C
1536127676.46,38478,18.19,74002.0,6.61,5.93,5.93,0,*7C
1536127677.65,38479,18.19,74002.5,6.59,6.25,6.25,0,*76
1536127678.89,38480,18.19,74004.5,6.59,5.81,5.81,0,*70
1536127680.06,38481,18.19,74000.8,6.63,5.59,5.63,0,*71
1536127681.26,38482,18.19,74002.5,6.59,6.07,6.13,0,*77
1536127682.51,38483,18.19,74004.3,6.59,6.51,6.51,0,*73
1536127683.76,38484,18.19,74000.5,6.61,6.51,6.57,0,*79
1536127685.01,38485,18.19,74000.0,6.59,6.51,6.47,0,*72
1536127686.26,38486,18.19,74000.8,6.61,6.51,6.57,0,*7B
1536127687.48,38487,18.19,73998.5,6.63,6.69,6.69,0,*7E
1536127688.73,38488,18.19,74000.0,6.65,6.91,6.91,0,*77
1536127689.91,38489,18.19,74002.3,6.63,6.79,6.75,0,*7C
1536127691.11,38490,18.19,74002.5,6.65,6.75,6.75,0,*7E
1536127692.31,38491,18.19,74002.8,6.65,6.79,6.79,0,*7F
1536127693.56,38492,18.19,73998.8,6.65,6.51,6.53,0,*7E
1536127694.81,38493,18.19,74000.5,6.65,5.73,5.73,0,*7D
1536127696.01,38494,18.19,73996.5,6.65,5.99,5.99,0,*7A
1536127697.27,38495,18.19,73998.5,6.65,6.51,6.53,0,*79
1536127698.5,38496,18.19,73998.3,6.63,6.39,6.39,0,*7E
1536127699.73,38497,18.19,74000.8,6.65,6.39,6.33,0,*73
1536127700.93,38498,18.19,74000.3,6.65,6.33,6.29,0,*7D
1536127702.14,38499,18.19,74002.0,6.67,5.73,5.63,0,*74
1536127703.35,38500,18.19,74002.5,6.69,5.67,5.59,0,*77
1536127704.54,38501,18.19,73998.0,6.67,5.99,5.99,0,*75
1536127705.77,38502,18.19,74000.3,6.67,6.65,6.73,0,*71
1536127707.01,38503,18.19,74002.5,6.67,6.43,6.43,0,*77
1536127708.25,38504,18.19,74002.0,6.67,6.35,6.35,0,*70
1536127709.48,38505,18.19,74000.8,6.67,6.73,6.73,0,*71
1536127710.7,38506,18.19,74002.5,6.67,6.53,6.53,0,*72
1536127711.94,38507,18.19,74000.5,6.67,6.43,6.43,0,*73
1536127713.12,38508,18.19,74002.5,6.67,6.25,6.29,0,*70
1536127714.34,38509,18.19,74000.0,6.67,6.35,6.25,0,*7C
1536127715.56,38510,18.19,74004.5,6.67,6.69,6.69,0,*75
1536127716.77,38511,18.19,74004.0,6.69,6.97,6.97,0,*7A
1536127717.97,38512,18.19,74002.0,6.69,6.75,6.75,0,*79
1536127719.23,38513,18.19,74000.0,6.69,6.47,6.51,0,*7F
1536127720.41,38514,18.19,74000.8,6.71,6.25,6.25,0,*76
1536127721.67,38515,18.19,74006.3,6.73,6.51,6.43,0,*76
1536127722.92,38516,18.19,74000.3,6.73,6.53,6.53,0,*76
1536127724.11,38517,18.19,74000.0,6.71,6.75,6.73,0,*73
1536127725.33,38518,18.19,74002.0,6.71,6.69,6.69,0,*7A
1536127726.58,38519,18.19,74002.5,6.73,6.65,6.65,0,*79
1536127727.84,38520,18.19,74004.0,6.73,6.65,6.65,0,*73
1536127729.01,38521,18.19,74000.3,6.75,6.79,6.79,0,*74